Weather History for KSUS - March, 2014

Change the Weather History Date:

Thursday, March 20, 2014

  Actual Average Record
Temperature  
Mean Temperature 44 °F -  
Max Temperature 68 °F 54 °F 82 °F (2011)
Min Temperature 23 °F 32 °F 23 °F (2005)
Degree Days  
Heating Degree Days 20    
Moisture  
Dew Point 25 °F    
Average Humidity 49    
Maximum Humidity 96    
Minimum Humidity 18    
Precipitation  
Precipitation 0.00 in - - ()
Sea Level Pressure  
Sea Level Pressure 30.05 in    
Wind  
Wind Speed 5 mph (SW)    
Max Wind Speed 17 mph    
Max Gust Speed 25 mph    
Visibility 10 miles    
Events      
Averages and records for this station are not official NWS values.
T = Trace of Precipitation, MM = Missing Value Source: NWS Daily Summary

Daily Weather History Graph

Daily Weather History Graph

Search for Another Location

Airport or City:

Trip Planner

Search our weather history database for the weather conditions in past years. The results will help you decide how hot, cold, wet, or windy it might be!

Date:

Astronomy

Mar. 20, 2014 Rise Set
Actual Time 7:06 AM CDT 7:14 PM CDT
Civil Twilight 6:39 AM CDT 7:41 PM CDT
Nautical Twilight 6:08 AM CDT 8:12 PM CDT
Astronomical Twilight 5:37 AM CDT 8:43 PM CDT
Moon 11:31 PM CDT (3/20) 9:15 AM CDT (3/20)
Length of Visible Light 13h 01m
Length of Day
12h 08m
Waning Gibbous, 84% of the Moon is Illuminated
Mar 20
Waning Gibbous
Mar 23
Last Quarter
Mar 30
New
Apr 7
First Quarter
Apr 15
Full

Hourly Weather History & Observations

Time (CDT) Temp. Windchill Dew Point Humidity Pressure Visibility Wind Dir Wind Speed Gust Speed Precip Events Conditions
12:54 AM 28.0 °F - 24.1 °F 85% 30.15 in 10.0 mi Calm Calm - N/A   Clear
1:54 AM 28.9 °F - 25.0 °F 85% 30.15 in 10.0 mi Calm Calm - N/A   Clear
2:54 AM 26.1 °F - 23.0 °F 88% 30.14 in 10.0 mi Calm Calm - N/A   Clear
3:54 AM 26.1 °F - 23.0 °F 88% 30.13 in 8.0 mi Calm Calm - N/A   Clear
4:54 AM 25.0 °F - 21.9 °F 88% 30.13 in 6.0 mi Calm Calm - N/A   Clear
5:54 AM 25.0 °F - 21.9 °F 88% 30.14 in 8.0 mi Calm Calm - N/A   Clear
6:54 AM 23.0 °F - 19.9 °F 88% 30.14 in 10.0 mi Calm Calm - N/A   Clear
7:54 AM 27.0 °F - 26.1 °F 96% 30.14 in 10.0 mi Calm Calm - N/A   Clear
8:54 AM 43.0 °F 36.8 °F 28.0 °F 56% 30.13 in 10.0 mi WSW 11.5 mph - N/A   Partly Cloudy
9:54 AM 50.0 °F - 27.0 °F 41% 30.13 in 10.0 mi WSW 11.5 mph - N/A   Partly Cloudy
10:54 AM 55.0 °F - 27.0 °F 34% 30.12 in 10.0 mi WSW 9.2 mph 18.4 mph N/A   Partly Cloudy
11:54 AM 60.1 °F - 27.0 °F 28% 30.09 in 10.0 mi WSW 15.0 mph - N/A   Partly Cloudy
12:54 PM 62.1 °F - 25.0 °F 24% 30.07 in 10.0 mi West 9.2 mph 23.0 mph N/A   Clear
1:54 PM 64.9 °F - 24.1 °F 21% 30.03 in 10.0 mi WSW 17.3 mph 25.3 mph N/A   Partly Cloudy
2:54 PM 66.0 °F - 24.1 °F 20% 30.00 in 10.0 mi WSW 13.8 mph - N/A   Partly Cloudy
3:54 PM 66.9 °F - 23.0 °F 19% 29.97 in 10.0 mi WSW 17.3 mph 21.9 mph N/A   Partly Cloudy
4:54 PM 66.9 °F - 21.9 °F 18% 29.95 in 10.0 mi WSW 13.8 mph 24.2 mph N/A   Scattered Clouds
5:54 PM 66.9 °F - 23.0 °F 19% 29.94 in 10.0 mi SW 9.2 mph 19.6 mph N/A   Partly Cloudy
6:54 PM 62.1 °F - 23.0 °F 22% 29.94 in 10.0 mi SW 6.9 mph - N/A   Partly Cloudy
7:54 PM 51.1 °F - 28.0 °F 41% 29.94 in 10.0 mi SSE 4.6 mph - N/A   Partly Cloudy
8:54 PM 48.0 °F - 28.0 °F 46% 29.95 in 10.0 mi South 4.6 mph - N/A   Clear
9:54 PM 55.9 °F - 25.0 °F 30% 29.93 in 10.0 mi SSW 8.1 mph - N/A   Clear
10:54 PM 57.9 °F - 24.1 °F 27% 29.92 in 10.0 mi SSW 11.5 mph - N/A   Clear
11:54 PM 55.0 °F - 27.0 °F 34% 29.91 in 10.0 mi SSW 12.7 mph - N/A   Clear